Home   Weather   Chemnitz   Past weeks

Flag for Germany Past Weather in Chemnitz, Saxony, Germany — Yesterday and Last 2 Weeks

Now
27 °F

Clear.


Feels Like: 17 °F
Forecast: 7 / 24 °F
Wind: 9 mph from Southeast

Location: Dresden-Klotzsche

Current Time: Jan 22, 2017 at 6:52:42 am

Latest Report: Jan 22, 2017 at 6:20 am


Visibility: 10 mi

Pressure: 30.36 "Hg

Humidity: 74%

Dew Point: 19 °F

Location of ChemnitzLocation

Past Weather in Chemnitz — Graph

°F

Chemnitz Temperature Yesterday

Maximum temperature yesterday: 32 °F (at 12:50 pm)
Minimum temperature yesterday: 19 °F (at 8:20 am)
Average temperature yesterday: 26 °F

High & Low Weather Summary for the Past Weeks

 TemperatureHumidityPressure
High41 °F (Jan 13, 6:20 am)100% (Jan 7, 9:20 pm)30.72 "Hg (Jan 7, 9:20 pm)
Low12 °F (Jan 19, 6:20 am)57% (Jan 13, 7:20 am)29.12 "Hg (Jan 13, 5:50 am)
Average26 °F89%30.15 "Hg
* Reported Jan 7 5:20 am — Jan 22 5:50 am, Chemnitz, Weather by CustomWeather, © 2017

Note: Actual official high and low records may vary slightly from our data, if they occured in-between our weather recording intervals... More about our weather records

Advertising

Chemnitz Weather History for the Previous 24 Hours

Scroll right to see more
 ConditionsComfort  
Time TempWeatherWind HumidityBarometerVisibility
5:50 am
Sun, Jan 22
27 °FClear.8 mph74%30.36 "Hg5 mi
5:20 am27 °FClear.8 mph74%30.36 "Hg5 mi
4:50 am27 °FClear.9 mph74%30.36 "Hg5 mi
4:20 am27 °FClear.8 mph80%30.36 "Hg4 mi
3:50 am27 °FClear.7 mph80%30.36 "Hg4 mi
3:20 am27 °FClear.6 mph80%30.39 "Hg4 mi
2:50 am27 °FClear.7 mph80%30.39 "Hg4 mi
2:20 am27 °FClear.9 mph86%30.39 "Hg4 mi
1:50 am27 °FClear.8 mph86%30.39 "Hg4 mi
1:20 am27 °FClear.5 mph86%30.39 "Hg4 mi
12:50 am27 °FIce fog.8 mph93%30.39 "Hg3 mi
12:20 am23 °FIce fog.3 mph93%30.42 "Hg3 mi
11:50 pm
Sat, Jan 21
25 °FIce fog.1 mph93%30.42 "Hg3 mi
11:20 pm23 °FIce fog.2 mph93%30.42 "Hg3 mi
10:50 pm25 °FIce fog.1 mph100%30.42 "Hg2 mi
10:20 pm23 °FIce fog.2 mph100%30.42 "Hg2 mi
9:50 pm27 °FIce fog.2 mph93%30.42 "Hg3 mi
9:20 pm27 °FIce fog.2 mph86%30.42 "Hg2 mi
8:50 pm27 °FIce fog.2 mph93%30.42 "Hg2 mi
8:20 pm27 °FIce fog.2 mph86%30.42 "Hg2 mi
7:50 pm28 °FIce fog.3 mph86%30.42 "Hg2 mi
7:20 pm27 °FIce fog.3 mph93%30.42 "Hg3 mi
6:50 pm28 °FIce fog.3 mph93%30.42 "Hg3 mi
6:20 pm27 °FIce fog.5 mph93%30.45 "Hg3 mi
5:50 pm27 °FClear.5 mph93%30.42 "Hg4 mi
5:20 pm28 °FClear.5 mph86%30.42 "Hg5 mi
4:50 pm30 °FClear.5 mph86%30.42 "Hg6 mi
4:20 pm30 °FSunny.3 mph86%30.42 "Hg10 mi
3:50 pm32 °FSunny.5 mph80%30.42 "Hg10 mi
3:20 pm32 °FSunny.5 mph80%30.42 "Hg10 mi
2:50 pm32 °FPassing clouds.6 mph80%30.45 "HgN/A
2:20 pm32 °FPassing clouds.5 mph80%30.45 "HgN/A
1:50 pm32 °FPartly sunny.6 mph80%30.45 "HgN/A
1:20 pm32 °FPartly sunny.6 mph80%30.45 "HgN/A
12:50 pm32 °FPartly sunny.6 mph80%30.48 "HgN/A
12:20 pm30 °FPartly sunny.3 mph86%30.48 "HgN/A
11:50 am28 °FPartly sunny.3 mph93%30.48 "Hg5 mi
11:20 am27 °FPartly sunny.1 mph93%30.48 "Hg4 mi
10:50 am23 °FScattered clouds.2 mph93%30.51 "Hg4 mi
10:20 am25 °FIce fog.2 mph86%30.51 "Hg3 mi
9:50 am21 °FIce fog.3 mph100%30.51 "Hg3 mi
9:20 am21 °FIce fog.2 mph93%30.51 "Hg3 mi
8:50 am21 °FIce fog.2 mph93%30.48 "Hg2 mi
8:20 am19 °FIce fog.2 mph93%30.48 "Hg2 mi
7:50 am21 °FIce fog.3 mph93%30.48 "Hg2 mi
7:20 am23 °FIce fog.3 mph93%30.48 "Hg3 mi
6:50 am23 °FIce fog.2 mph93%30.48 "Hg3 mi
6:20 am23 °FIce fog.2 mph93%30.48 "Hg3 mi
Weather by CustomWeather, © 2017

See weather overviewHow to use our weather pages